When you browse on this site, cookies collect data to enhance your experience and personalize the content and advertising you see.
Visit our Privacy Policy to learn more. By continuing to use the site, you agree to this use of cookies and data.
  • In Spain
  • List of Countries
  • For 7 days
  • Water Temperature
  • Weather Map
  • Weather Widgets
  • user-avatar
    Login

    Hourly Weather Sukmanovo 1

    Today, 18 November, Monday

    Time Temperature Precipitation Wind Pressure Humidity
    00:00 +1°C° 0 mm 2 mps 748 mmHg 94%
    01:00 +1°C° 0 mm 2 mps 748 mmHg 93%
    02:00 +1°C° 0 mm 2 mps 748 mmHg 93%
    03:00 +1°C° 0 mm 2 mps 748 mmHg 93%
    04:00 +2°C° 0 mm 1 mps 748 mmHg 92%
    05:00 +2°C° 0 mm 1 mps 747 mmHg 92%
    06:00 +2°C° 0 mm 1 mps 747 mmHg 92%
    07:00 +1°C° 0 mm 2 mps 748 mmHg 91%
    08:00 +1°C° 0 mm 2 mps 748 mmHg 87%
    09:00 +1°C° 0 mm 2 mps 748 mmHg 85%
    10:00 +1°C° 0 mm 2 mps 748 mmHg 84%
    11:00 +2°C° 0 mm 2 mps 748 mmHg 83%
    12:00 +3°C° 0 mm 1 mps 747 mmHg 82%
    13:00 +3°C° 0 mm 1 mps 747 mmHg 81%
    14:00 +3°C° 0 mm 1 mps 747 mmHg 81%
    15:00 +2°C° 0 mm 1 mps 747 mmHg 84%
    16:00 +2°C° 0 mm 1 mps 747 mmHg 86%
    17:00 +2°C° 0 mm 1 mps 747 mmHg 88%
    18:00 +2°C° 0 mm 1 mps 747 mmHg 89%
    19:00 +2°C° 0 mm 1 mps 747 mmHg 91%
    20:00 -1°C° 0 mm 2 mps 747 mmHg 92%
    21:00 -1°C° 0 mm 2 mps 747 mmHg 92%
    22:00 -1°C° 0 mm 2 mps 747 mmHg 93%
    23:00 +1°C° 0 mm 2 mps 747 mmHg 94%

    Tomorrow, 19 November, Tuesday

    Time Temperature Precipitation Wind Pressure Humidity
    00:00 +1°C° 0 mm 2 mps 747 mmHg 93%
    01:00 +1°C° 0 mm 2 mps 747 mmHg 93%
    02:00 +1°C° 0 mm 2 mps 747 mmHg 93%
    03:00 +1°C° 0 mm 2 mps 747 mmHg 93%
    04:00 +1°C° 0 mm 2 mps 747 mmHg 93%
    05:00 +1°C° 0 mm 2 mps 747 mmHg 93%
    06:00 +1°C° 0 mm 2 mps 747 mmHg 92%
    07:00 +1°C° 0 mm 2 mps 747 mmHg 92%
    08:00 +1°C° 0 mm 2 mps 748 mmHg 91%
    09:00 +2°C° 0 mm 2 mps 748 mmHg 90%
    10:00 +2°C° 0 mm 2 mps 748 mmHg 88%
    11:00 +1°C° 0 mm 3 mps 748 mmHg 86%
    12:00 +2°C° 0 mm 2 mps 748 mmHg 86%
    13:00 +3°C° 0 mm 2 mps 748 mmHg 86%
    14:00 +3°C° 0 mm 2 mps 748 mmHg 85%
    15:00 +1°C° 0 mm 3 mps 748 mmHg 87%
    16:00 +1°C° 0 mm 3 mps 748 mmHg 88%
    17:00 +1°C° 0 mm 3 mps 748 mmHg 89%
    18:00 +1°C° 0 mm 3 mps 748 mmHg 89%
    19:00 +1°C° 0 mm 3 mps 749 mmHg 88%
    20:00 +1°C° 0 mm 3 mps 749 mmHg 88%
    21:00 +2°C° 0 mm 3 mps 749 mmHg 88%
    22:00 +2°C° 0 mm 3 mps 749 mmHg 89%
    23:00 +2°C° 0 mm 3 mps 749 mmHg 89%

    Day after tomorrow, 20 November, Wednesday

    Time Temperature Precipitation Wind Pressure Humidity
    00:00 +2°C° 0 mm 3 mps 750 mmHg 90%
    01:00 +2°C° 0 mm 3 mps 750 mmHg 90%
    02:00 +2°C° 0 mm 3 mps 750 mmHg 90%
    03:00 +1°C° 0 mm 4 mps 750 mmHg 88%
    04:00 +1°C° 0 mm 4 mps 750 mmHg 86%
    05:00 +1°C° 0 mm 5 mps 750 mmHg 83%
    06:00 +1°C° 0 mm 5 mps 751 mmHg 81%
    07:00 +1°C° 0 mm 5 mps 751 mmHg 79%
    08:00 0°C° 0 mm 5 mps 752 mmHg 77%
    09:00 -1°C° 0 mm 6 mps 752 mmHg 78%
    10:00 -1°C° 0 mm 6 mps 752 mmHg 79%
    11:00 -2°C° 0 mm 6 mps 752 mmHg 80%
    12:00 -2°C° 0 mm 6 mps 753 mmHg 80%
    13:00 -2°C° 0 mm 6 mps 753 mmHg 80%
    14:00 -1°C° 0 mm 5 mps 753 mmHg 79%
    15:00 -2°C° 0 mm 5 mps 754 mmHg 79%
    16:00 -2°C° 0 mm 5 mps 754 mmHg 79%
    17:00 -3°C° 0 mm 6 mps 754 mmHg 79%
    18:00 -4°C° 0 mm 5 mps 754 mmHg 75%
    19:00 -5°C° 0 mm 5 mps 755 mmHg 70%
    20:00 -5°C° 0 mm 5 mps 755 mmHg 66%
    21:00 -5°C° 0 mm 5 mps 756 mmHg 61%
    22:00 -6°C° 0 mm 5 mps 756 mmHg 56%
    23:00 -6°C° 0 mm 5 mps 756 mmHg 51%

    21 November, Thursday

    Time Temperature Precipitation Wind Pressure Humidity
    00:00 -6°C° 0 mm 5 mps 756 mmHg 49%
    01:00 -6°C° 0 mm 5 mps 756 mmHg 47%
    02:00 -7°C° 0 mm 5 mps 757 mmHg 45%
    03:00 -7°C° 0 mm 5 mps 757 mmHg 46%
    04:00 -7°C° 0 mm 5 mps 757 mmHg 46%
    05:00 -7°C° 0 mm 5 mps 757 mmHg 47%
    06:00 -8°C° 0 mm 5 mps 757 mmHg 49%
    07:00 -8°C° 0 mm 5 mps 757 mmHg 51%
    08:00 -8°C° 0 mm 5 mps 758 mmHg 53%
    09:00 -8°C° 0 mm 5 mps 758 mmHg 50%
    10:00 -7°C° 0 mm 5 mps 758 mmHg 48%
    11:00 -7°C° 0 mm 5 mps 758 mmHg 45%
    12:00 -7°C° 0 mm 5 mps 758 mmHg 43%
    13:00 -6°C° 0 mm 5 mps 758 mmHg 41%
    14:00 -6°C° 0 mm 5 mps 758 mmHg 38%
    15:00 -7°C° 0 mm 5 mps 758 mmHg 39%
    16:00 -7°C° 0 mm 4 mps 758 mmHg 39%
    17:00 -8°C° 0 mm 4 mps 757 mmHg 39%
    18:00 -8°C° 0 mm 4 mps 758 mmHg 38%
    19:00 -8°C° 0 mm 4 mps 758 mmHg 38%
    20:00 -8°C° 0 mm 4 mps 758 mmHg 37%
    21:00 -8°C° 0 mm 4 mps 758 mmHg 37%
    22:00 -9°C° 0 mm 4 mps 758 mmHg 38%
    23:00 -9°C° 0 mm 4 mps 758 mmHg 38%

    22 November, Friday

    Time Temperature Precipitation Wind Pressure Humidity
    00:00 -9°C° 0 mm 4 mps 758 mmHg 39%
    01:00 -9°C° 0 mm 4 mps 758 mmHg 40%
    02:00 -9°C° 0 mm 4 mps 758 mmHg 41%
    03:00 -9°C° 0 mm 3 mps 758 mmHg 42%
    04:00 -9°C° 0 mm 3 mps 758 mmHg 43%
    05:00 -9°C° 0 mm 3 mps 758 mmHg 44%
    06:00 -9°C° 0 mm 3 mps 758 mmHg 44%
    07:00 -9°C° 0 mm 3 mps 758 mmHg 45%
    08:00 -9°C° 0 mm 3 mps 758 mmHg 45%
    09:00 -9°C° 0 mm 4 mps 758 mmHg 43%
    10:00 -8°C° 0 mm 4 mps 758 mmHg 40%
    11:00 -8°C° 0 mm 4 mps 758 mmHg 37%
    12:00 -7°C° 0 mm 4 mps 757 mmHg 36%
    13:00 -7°C° 0 mm 4 mps 757 mmHg 35%
    14:00 -7°C° 0 mm 4 mps 757 mmHg 34%
    15:00 -7°C° 0 mm 4 mps 756 mmHg 36%
    16:00 -8°C° 0 mm 4 mps 756 mmHg 38%
    17:00 -8°C° 0 mm 4 mps 756 mmHg 39%
    18:00 -8°C° 0 mm 4 mps 756 mmHg 40%
    19:00 -8°C° 0 mm 4 mps 755 mmHg 41%
    20:00 -8°C° 0 mm 4 mps 755 mmHg 41%
    21:00 -8°C° 0 mm 4 mps 755 mmHg 42%
    22:00 -8°C° 0 mm 4 mps 755 mmHg 43%
    23:00 -9°C° 0 mm 4 mps 755 mmHg 43%

    23 November, Saturday

    Time Temperature Precipitation Wind Pressure Humidity
    00:00 -8°C° 0 mm 3 mps 755 mmHg 44%
    01:00 -8°C° 0 mm 3 mps 755 mmHg 45%
    02:00 -8°C° 0 mm 3 mps 755 mmHg 45%
    03:00 -8°C° 0 mm 3 mps 754 mmHg 45%
    04:00 -8°C° 0 mm 3 mps 754 mmHg 45%
    05:00 -8°C° 0 mm 3 mps 754 mmHg 45%
    06:00 -9°C° 0 mm 4 mps 754 mmHg 44%
    07:00 -9°C° 0 mm 4 mps 754 mmHg 43%
    08:00 -9°C° 0 mm 4 mps 753 mmHg 42%
    09:00 -8°C° 0 mm 4 mps 753 mmHg 40%
    10:00 -8°C° 0 mm 4 mps 753 mmHg 37%
    11:00 -7°C° 0 mm 4 mps 753 mmHg 35%
    12:00 -7°C° 0 mm 4 mps 753 mmHg 34%
    13:00 -7°C° 0 mm 4 mps 753 mmHg 34%
    14:00 -7°C° 0 mm 4 mps 752 mmHg 34%
    15:00 -7°C° 0 mm 4 mps 752 mmHg 35%
    16:00 -8°C° 0 mm 4 mps 752 mmHg 37%
    17:00 -8°C° 0 mm 4 mps 752 mmHg 38%
    18:00 -8°C° 0 mm 4 mps 751 mmHg 39%
    19:00 -8°C° 0 mm 4 mps 751 mmHg 39%
    20:00 -8°C° 0 mm 5 mps 751 mmHg 40%
    21:00 -9°C° 0 mm 4 mps 751 mmHg 40%
    22:00 -9°C° 0 mm 4 mps 751 mmHg 41%
    23:00 -9°C° 0 mm 4 mps 751 mmHg 41%
    Show more